English version Home page |
Updated on November 3, 2020 |
|
軌道要素Epoch 2019 Oct. 4.0 TT = JDT 2458760.5 T 2019 Sept. 14.78533 TT Bell q 2.5676021 (2000.0) P Q n 0.11105359 Peri. 44.32739 +0.74849299 -0.66297882 a 4.2866133 Node 357.08080 +0.49896800 +0.57769180 e 0.4010185 Incl. 16.82653 +0.43679421 +0.47616308 P 8.88 From 353 observations 2010 Oct. 1-2020 Jan. 13, mean residual 0".8.
|
光度変化m1 = 14.0 + 5 logΔ + 10.0 log r
|
軌道要素はM.P.E.C. 2020-C98に掲載されたものです。
|